TimeEST,TemperatureF,Dew PointF,Humidity,Sea Level PressureIn,VisibilityMPH,Wind Direction,Wind SpeedMPH,Gust SpeedMPH,PrecipitationIn,Events,Conditions,WindDirDegrees,DateUTC
12:29 AM,30.2,28.4,93,29.94,8.0,Calm,Calm,-,N/A,,Scattered Clouds,0,2013-02-14 05:29:00
12:51 AM,32.0,28.9,88,29.96,7.0,SSW,3.5,-,N/A,,Clear,200,2013-02-14 05:51:00
1:51 AM,30.2,28.4,93,29.95,7.0,SSW,3.5,-,N/A,,Clear,200,2013-02-14 06:51:00
2:51 AM,30.9,28.0,89,29.97,8.0,South,5.8,-,N/A,,Clear,190,2013-02-14 07:51:00
3:51 AM,30.2,28.4,93,29.95,8.0,South,5.8,-,N/A,,Clear,190,2013-02-14 08:51:00
4:51 AM,30.9,28.0,89,29.98,7.0,SSW,6.9,-,N/A,,Clear,200,2013-02-14 09:51:00
5:51 AM,30.9,28.0,89,29.98,8.0,SSW,8.1,-,N/A,,Clear,200,2013-02-14 10:51:00
6:28 AM,30.2,28.4,93,29.97,8.0,SSW,9.2,-,N/A,,Scattered Clouds,200,2013-02-14 11:28:00
6:37 AM,30.2,28.4,93,29.97,8.0,SSW,8.1,-,N/A,,Mostly Cloudy,200,2013-02-14 11:37:00
6:51 AM,30.2,28.4,93,29.97,8.0,South,8.1,-,N/A,,Overcast,190,2013-02-14 11:51:00
7:51 AM,32.0,28.9,88,30.00,7.0,SSW,5.8,-,N/A,,Overcast,200,2013-02-14 12:51:00
8:51 AM,33.1,30.9,92,30.00,9.0,South,8.1,-,N/A,,Clear,190,2013-02-14 13:51:00
9:51 AM,37.0,32.0,82,30.00,10.0,SSW,9.2,16.1,N/A,,Partly Cloudy,210,2013-02-14 14:51:00
10:51 AM,41.0,34.0,76,30.00,10.0,SSW,11.5,19.6,N/A,,Clear,200,2013-02-14 15:51:00
11:51 AM,44.1,34.0,68,29.98,10.0,South,9.2,18.4,N/A,,Scattered Clouds,170,2013-02-14 16:51:00
12:51 PM,46.9,34.0,61,29.95,10.0,South,11.5,17.3,N/A,,Mostly Cloudy,180,2013-02-14 17:51:00
1:51 PM,48.9,33.1,54,29.93,10.0,SSW,11.5,19.6,N/A,,Mostly Cloudy,200,2013-02-14 18:51:00
2:51 PM,50.0,32.0,50,29.91,10.0,South,13.8,21.9,N/A,,Scattered Clouds,190,2013-02-14 19:51:00
3:51 PM,52.0,32.0,47,29.90,10.0,SW,12.7,17.3,N/A,,Clear,220,2013-02-14 20:51:00
4:51 PM,52.0,30.0,43,29.91,10.0,SSW,12.7,19.6,N/A,,Scattered Clouds,210,2013-02-14 21:51:00
5:51 PM,51.1,30.9,46,29.92,10.0,SSW,8.1,-,N/A,,Scattered Clouds,210,2013-02-14 22:51:00
6:51 PM,48.9,30.9,50,29.94,10.0,SSW,5.8,-,N/A,,Scattered Clouds,210,2013-02-14 23:51:00
7:51 PM,48.9,30.9,50,29.95,10.0,SSW,6.9,-,N/A,,Scattered Clouds,200,2013-02-15 00:51:00
8:51 PM,48.0,30.9,52,29.95,10.0,SSW,6.9,-,N/A,,Mostly Cloudy,200,2013-02-15 01:51:00
9:51 PM,46.0,30.9,56,29.96,10.0,SSW,4.6,-,N/A,,Mostly Cloudy,210,2013-02-15 02:51:00
10:51 PM,46.0,30.9,56,29.97,10.0,SW,4.6,-,N/A,,Scattered Clouds,230,2013-02-15 03:51:00
11:51 PM,46.0,30.9,56,29.96,10.0,SSW,4.6,-,N/A,,Clear,210,2013-02-15 04:51:00